This is the latest recevied weather packets stored in our database for station/object KC0QBU-13. If no packets are shown the sender has not sent any weather packets the latest 10 day(s).
| Time | Temp. | Humidity | Pressure | Rain* | Wind** | Luminosity | Snow |
|---|---|---|---|---|---|---|---|
| 1777669340 | 17.22° C | 34% | 1017.7 hPa | 0 mm | - | - | - |
| 1777669040 | 17.22° C | 36% | 1017.9 hPa | 0 mm | - | - | - |
| 1777668710 | 17.22° C | 33% | 1018 hPa | 0 mm | - | - | - |
| 1777668410 | 17.78° C | 35% | 1018 hPa | 0 mm | - | - | - |
| 1777668080 | 17.78° C | 34% | 1018.1 hPa | 0 mm | - | - | - |
| 1777667780 | 18.33° C | 33% | 1018.1 hPa | 0 mm | - | - | - |
| 1777667480 | 18.89° C | 33% | 1018.2 hPa | 0 mm | - | - | - |
| 1777667150 | 18.33° C | 33% | 1018.2 hPa | 0 mm | - | - | - |
| 1777666820 | 17.78° C | 35% | 1018.3 hPa | 0 mm | - | - | - |
| 1777666490 | 17.78° C | 33% | 1018.4 hPa | 0 mm | - | - | - |
| 1777666160 | 18.33° C | 33% | 1018.4 hPa | 0 mm | - | - | - |
| 1777665860 | 18.33° C | 33% | 1018.5 hPa | 0 mm | - | - | - |
| 1777665530 | 17.78° C | 37% | 1018.6 hPa | 0 mm | - | - | - |
| 1777665230 | 17.22° C | 35% | 1018.7 hPa | 0 mm | - | - | - |
| 1777664930 | 17.22° C | 35% | 1018.8 hPa | 0 mm | - | - | - |
| 1777664600 | 17.78° C | 34% | 1018.8 hPa | 0 mm | - | - | - |
| 1777664300 | 17.78° C | 35% | 1018.8 hPa | 0 mm | - | - | - |
| 1777664000 | 17.78° C | 35% | 1018.8 hPa | 0 mm | - | - | - |
| 1777663670 | 17.78° C | 33% | 1019 hPa | 0 mm | - | - | - |
| 1777663370 | 17.22° C | 36% | 1019.1 hPa | 0 mm | - | - | - |
| 1777663070 | 17.22° C | 35% | 1019 hPa | 0 mm | - | - | - |
| 1777662770 | 17.78° C | 33% | 1019 hPa | 0 mm | - | - | - |
| 1777662470 | 17.78° C | 34% | 1019.1 hPa | 0 mm | - | - | - |
| 1777662170 | 17.78° C | 33% | 1019.1 hPa | 0 mm | - | - | - |
| 1777661870 | 17.78° C | 32% | 1019 hPa | 0 mm | - | - | - |
* Rain latest hour (hover to see other rain measurements)
** Current wind speed in m/s (hover to see current wind gust speed)